Voltar ao catálogo

STARLINK-4074

AtivoComunicaçõesVLEO
NORAD 52678·PAYLOAD·🇺🇸 United States

Lançado May 18, 2022 de Cape Canaveral Space Force Station

Loading…

Próximas Passagens (próximas 24 horas)

TLE

AtualizadoSource: CelesTrak SupGP

Época: Sep 14, 2026, 21:37 UTC

1 52678C 22053Y   26257.90118056 -.00022708  00000+0 -73045-3 0  2571
2 52678  53.1610   8.8905 0001021  78.7911 178.8740 15.31704434    11

Acompanhe STARLINK-4074 em tempo real com AllMySat

Download on the App Store